Showing default

RISAT 1, 38248

Orbit data source: Space-Track

RISAT 1, 38248 is a payload satellite owned by ISRO (IN) in SSO that was launched on Thu, 26 Apr 2012 UTC via a PSLV-XL launch vehicle from the Sirharikota (SRI). Payload-class satellites include a variety of spacecraft equipped with specific instruments for various scientific and technological missions. These include communications satellites like Starlink; space stations such as the ISS; scientific satellites like the Hubble; Earth observation satellites from companies like Planet Labs, Umbra, and HawkEye 360; GPS; miniature CubeSats for education and research; and military/defense satellites.

Loading next visibility...
Identifier
38248, 2012-017A
Orbit
SSO
Country
Flag of ININ / IND
Related business
Manufacturer
ISAC/HAL
Mission
Non-operational Civil Radar Imaging
Bus & Motor
IRS, Unknown motor
Mass
1,858 kg wet, 1,805 kg dry
Launch date (UTC)
2012-04-26 (14 years ago)
Launch vehicle
PSLV-XL
Launch site
Sirharikota (SRI)
Object type
Payload
Rocket body
Debris
Shape & HBR
Box + Hex Box + 3 Pan, 14.0 m
Radar Cross Section
17.625 m², Large (>1 m²)

Expand to show TLE details & history
Last TLE update: 7 hours ago

TLE from 7 hours ago
0 RISAT 1
1 38248U 12017A   25308.55445148  .00026732  00000-0  51440-3 0  9997
2 38248  97.4757 341.2616 0001431 157.4746 202.6567 15.47881347747130
Epoch: 2025-11-04T13:18Z
TLE epoch observation values (Epoch: 2025-11-04T13:18:24.607Z)
Latitude
-0.00006°
Longitude
97.61927°
Altitude
426.949 km
Speed
7.655 km/s
True Right ascension
22h 45m 02s
True Declination
0° 00' 00"
Sunlit
Object was in full shadow at epoch
Visualization orbit readout
Latitude
Unknown
Longitude
Unknown
Altitude
Unknown
Speed
Unknown
Apparent Right ascension
Unknown
Apparent Declination
Unknown
Sunlit
N/A
Visualization observer readout
Local Sidereal Time
16:41:16
Azimuth
Unknown
Elevation
Unknown
Doppler factor
Unknown
Orbital elements
Apogee altitude
420.83 km
Perigee altitude
418.884 km
Semi-major axis
6,797.994 km
Eccentricity
0.00014
Inclination
97.4757°
RAAN
341.2616°
Arg. of periapsis
157.4746°
True anomaly
202.65038°
Mean anomaly
202.6567°
Eccentric anomaly
202.65354°
Mean motion
3.87233 °/min
Orbital period
92.97 mins
BSTAR
0.0005144
Loading maneuver chart data...
Computing Atmospheric mass density...
Loading historical data...
Loading historical data...
Loading historical data...
Loading historical data...
Loading historical data...
Loading historical data...
Loading historical data...
Other satellites on launch #17 in the year 2012 (2012-04-26 UTC)

Documentation

Showing up to 5 results
|